Home > Weather > New City > Past weeks

Flag for USA Past Weather in New City, New York, USA — Yesterday and Last 2 Weeks

Now
83 °F

Sunny.


Feels Like: 85 °F
Forecast: 66 / 85 °F
Wind: 9 mph from South

Location: Westchester County Airport

Current Time: May 27, 2016 at 2:23:29 PM

Latest Report: May 27, 2016 at 1:56 PM


Visibility: 10 mi

Pressure: 30.03 "Hg

Humidity: 55%

Dew Point: 65 °F

Location of New CityLocation

Past Weather in New City — Graph

°F

New City Temperature Yesterday

Maximum temperature yesterday: 88 °F (at 2:56 PM)
Minimum temperature yesterday: 60 °F (at 4:56 AM)
Average temperature yesterday: 75 °F

High & Low Weather Summary for the Past Weeks

 TemperatureHumidityPressure
High88 °F (May 26, 2:56 PM)100% (May 14, 2:56 AM)30.26 "Hg (May 14, 2:56 AM)
Low39 °F (May 16, 4:56 AM)20% (May 25, 2:56 PM)29.59 "Hg (May 14, 5:56 PM)
Average61 °F61%29.98 "Hg
* Reported May 12 12:56 PM — May 27 12:56 PM, New City, Weather by CustomWeather, © 2016

Note: Actual official high and low records may vary slightly from our data, if they occured in-between our weather recording intervals... More about our weather records

Advertising

New City Weather History for the Previous 24 Hours

Scroll right to see more
 ConditionsComfort  
Time TempWeatherWind HumidityBarometerVisibility
12:56 PM
Fri, May 27
83 °FSunny.12 mph57%30.04 "Hg10 mi
11:56 AM80 °FSunny.5 mph58%30.06 "Hg10 mi
10:56 AM79 °FSunny.8 mph62%30.05 "Hg10 mi
9:56 AM72 °FSunny.3 mph71%30.06 "Hg8 mi
8:56 AM70 °FPartly sunny.5 mph73%30.06 "Hg8 mi
7:56 AM67 °FPartly sunny.No wind76%30.06 "Hg9 mi
6:56 AM66 °FPartly sunny.No wind73%30.05 "Hg9 mi
5:56 AM63 °FClear.No wind78%30.05 "Hg9 mi
4:56 AM63 °FClear.No wind78%30.05 "Hg10 mi
3:56 AM64 °FClear.No wind78%30.05 "Hg10 mi
2:56 AM63 °FClear.No wind81%30.04 "Hg10 mi
1:56 AM64 °FClear.3 mph78%30.05 "Hg10 mi
12:56 AM65 °FClear.No wind70%30.04 "Hg10 mi
11:56 PM
Thu, May 26
67 °FClear.No wind59%30.05 "Hg10 mi
10:56 PM69 °FClear.No wind53%30.05 "Hg10 mi
9:56 PM70 °FClear.3 mph49%30.05 "Hg10 mi
8:56 PM73 °FSunny.3 mph43%30.03 "Hg10 mi
7:56 PM76 °FSunny.6 mph37%30.03 "Hg10 mi
6:56 PM79 °FSunny.6 mph35%30.03 "Hg10 mi
5:56 PM81 °FSunny.8 mph35%30.02 "Hg10 mi
4:56 PM85 °FSunny.9 mph35%30.03 "Hg10 mi
3:56 PM86 °FPassing clouds.9 mph32%30.03 "Hg10 mi
2:56 PM88 °FPassing clouds.12 mph30%30.03 "Hg10 mi
Weather by CustomWeather, © 2016

See weather overviewHow to use our weather pages